This is the latest recevied weather packets stored in our database for station/object FW7644. If no packets are shown the sender has not sent any weather packets the latest 10 day(s).
| Time | Temp. | Humidity | Pressure | Rain* | Wind** | Luminosity | Snow |
|---|---|---|---|---|---|---|---|
| 1777739094 | 16.11° C | 92% | 1020.4 hPa | 0 mm | - | - | - |
| 1777738792 | 16.11° C | 92% | 1020.7 hPa | 0 mm | - | - | - |
| 1777738490 | 16.11° C | 93% | 1020.6 hPa | 0 mm | - | - | - |
| 1777738188 | 16.11° C | 93% | 1020.7 hPa | 0 mm | - | - | - |
| 1777737887 | 16.11° C | 93% | 1020.9 hPa | 0 mm | - | - | - |
| 1777737585 | 15.56° C | 93% | 1021.1 hPa | 0 mm | - | - | - |
| 1777737283 | 16.11° C | 93% | 1021.3 hPa | 0 mm | - | - | - |
| 1777736981 | 16.11° C | 92% | 1021.4 hPa | 0 mm | - | - | - |
| 1777736679 | 15.56° C | 92% | 1021.5 hPa | 0 mm | - | - | - |
| 1777736378 | 15.56° C | 93% | 1021.7 hPa | 0 mm | - | - | - |
| 1777736076 | 15.56° C | 94% | 1021.7 hPa | 0 mm | - | - | - |
| 1777735774 | 16.11° C | 95% | 1022 hPa | 0.25 mm | - | - | - |
| 1777735473 | 15.56° C | 95% | 1022.2 hPa | 0.25 mm | - | - | - |
| 1777735171 | 15.56° C | 95% | 1022.4 hPa | 0.51 mm | - | - | - |
| 1777734869 | 15.56° C | 95% | 1022.6 hPa | 0.51 mm | - | - | - |
| 1777734567 | 15.56° C | 94% | 1022.6 hPa | 0.51 mm | - | - | - |
| 1777734265 | 15.56° C | 94% | 1022.8 hPa | 0.51 mm | - | - | - |
| 1777733963 | 15.56° C | 95% | 1023.1 hPa | 0.76 mm | - | - | - |
| 1777733661 | 15° C | 94% | 1023.3 hPa | 0.76 mm | - | - | - |
| 1777733360 | 15° C | 94% | 1023.4 hPa | 1.78 mm | - | - | - |
| 1777733058 | 15° C | 94% | 1023.5 hPa | 1.78 mm | - | - | - |
| 1777732756 | 15° C | 94% | 1023.7 hPa | 2.54 mm | - | - | - |
| 1777732454 | 15° C | 94% | 1023.7 hPa | 2.54 mm | - | - | - |
| 1777732153 | 15° C | 94% | 1024 hPa | 2.79 mm | - | - | - |
| 1777731851 | 15° C | 93% | 1024.2 hPa | 2.54 mm | - | - | - |
* Rain latest hour (hover to see other rain measurements)
** Current wind speed in m/s (hover to see current wind gust speed)